TimeCDT,TemperatureF,Dew PointF,Humidity,Sea Level PressureIn,VisibilityMPH,Wind Direction,Wind SpeedMPH,Gust SpeedMPH,PrecipitationIn,Events,Conditions,WindDirDegrees,DateUTC
12:53 AM,81.0,64.0,56,29.76,10.0,SE,24.2,35.7,N/A,,Clear,140,2013-06-20 05:53:00
1:53 AM,79.0,64.0,60,29.79,10.0,SSE,15.0,21.9,N/A,,Clear,160,2013-06-20 06:53:00
2:53 AM,78.1,64.9,64,29.83,10.0,West,12.7,-,N/A,,Clear,280,2013-06-20 07:53:00
3:16 AM,78.8,64.4,61,29.98,10.0,SW,15.0,-,N/A,Thunderstorm,Clear,230,2013-06-20 08:16:00
3:31 AM,80.6,62.6,54,29.96,10.0,SW,13.8,-,N/A,,Partly Cloudy,220,2013-06-20 08:31:00
3:53 AM,79.0,63.0,58,29.76,10.0,South,17.3,-,N/A,,Scattered Clouds,190,2013-06-20 08:53:00
4:53 AM,79.0,62.1,56,29.73,10.0,SSE,18.4,25.3,N/A,,Partly Cloudy,150,2013-06-20 09:53:00
5:53 AM,78.1,61.0,56,29.73,10.0,ESE,11.5,-,N/A,,Clear,120,2013-06-20 10:53:00
6:53 AM,77.0,60.1,56,29.76,10.0,SE,6.9,-,N/A,,Clear,140,2013-06-20 11:53:00
7:53 AM,75.9,60.1,58,29.78,10.0,SSE,5.8,-,N/A,,Clear,150,2013-06-20 12:53:00
8:53 AM,78.1,61.0,56,29.81,10.0,SSE,16.1,21.9,N/A,,Clear,150,2013-06-20 13:53:00
9:53 AM,80.1,62.1,54,29.82,10.0,SSE,17.3,-,N/A,,Clear,150,2013-06-20 14:53:00
10:53 AM,84.0,62.1,47,29.82,10.0,SSE,16.1,-,N/A,,Clear,160,2013-06-20 15:53:00
11:53 AM,90.0,62.1,39,29.81,10.0,SSE,15.0,21.9,N/A,,Clear,160,2013-06-20 16:53:00
12:53 PM,93.0,59.0,32,29.80,10.0,SSE,12.7,25.3,N/A,,Clear,160,2013-06-20 17:53:00
1:53 PM,96.1,57.0,27,29.78,10.0,SSE,17.3,25.3,N/A,,Clear,150,2013-06-20 18:53:00
2:53 PM,99.0,54.0,22,29.76,10.0,SE,17.3,29.9,N/A,,Clear,140,2013-06-20 19:53:00
3:53 PM,100.9,48.0,17,29.73,10.0,SE,16.1,28.8,N/A,,Clear,140,2013-06-20 20:53:00
4:53 PM,97.0,51.1,21,29.71,10.0,SSE,23.0,29.9,N/A,,Clear,150,2013-06-20 21:53:00
5:53 PM,98.1,48.0,18,29.70,10.0,SE,21.9,32.2,N/A,,Clear,140,2013-06-20 22:53:00
6:53 PM,93.9,51.1,23,29.71,10.0,SSE,23.0,29.9,N/A,,Clear,150,2013-06-20 23:53:00
7:53 PM,91.0,52.0,26,29.76,10.0,SE,17.3,23.0,N/A,,Clear,140,2013-06-21 00:53:00
8:53 PM,89.1,55.9,32,29.80,10.0,SE,17.3,26.5,N/A,,Clear,140,2013-06-21 01:53:00
9:53 PM,86.0,60.1,41,29.85,10.0,SSE,11.5,20.7,N/A,,Clear,150,2013-06-21 02:53:00
10:25 PM,86.0,60.8,43,30.04,10.0,South,13.8,-,N/A,Thunderstorm,Thunderstorm,180,2013-06-21 03:25:00
10:40 PM,84.2,62.6,48,30.05,10.0,South,12.7,-,N/A,,Clear,170,2013-06-21 03:40:00
10:53 PM,84.9,62.1,46,29.93,10.0,SW,11.5,-,N/A,,Clear,220,2013-06-21 03:53:00
11:02 PM,78.8,57.2,47,30.10,10.0,WSW,19.6,35.7,N/A,Thunderstorm,Mostly Cloudy,250,2013-06-21 04:02:00
11:11 PM,75.2,57.2,53,30.09,10.0,WSW,25.3,29.9,N/A,Thunderstorm,Mostly Cloudy,250,2013-06-21 04:11:00
11:53 PM,71.1,64.9,81,29.91,10.0,SW,6.9,-,0.00,Rain-Thunderstorm,Light Rain,230,2013-06-21 04:53:00
11:59 PM,71.6,64.4,78,30.03,10.0,West,4.6,-,0.00,Rain-Thunderstorm,Light Thunderstorms and Rain,260,2013-06-21 04:59:00